| time (UTC) | temp C | wind direction | speed KPH | gust KPH | rain 1hr cm | rain 24hr cm | rain mn cm | humidity % | barometer mb |
| 20260506184548 | 16 | 213 | 0.0 | 4.8 | 0.00 | 1.37 | 1.27 | 69 | 1010.8 |
| 20260506183056 | 16 | 22 | 0.0 | 9.7 | 0.00 | 1.37 | 1.27 | 68 | 1010.6 |
| 20260506181559 | 16 | 293 | 0.0 | 8.0 | 0.00 | 1.37 | 1.27 | 66 | 1010.5 |
| 20260506180048 | 17 | 107 | 1.6 | 4.8 | 0.00 | 1.37 | 1.27 | 65 | 1010.2 |
| 20260506174546 | 17 | 102 | 1.6 | 9.7 | 0.00 | 1.37 | 1.27 | 63 | 1009.9 |
| 20260506173116 | 17 | 78 | 1.6 | 8.0 | 0.00 | 1.37 | 1.27 | 61 | 1009.7 |
| 20260506171551 | 18 | 38 | 1.6 | 9.7 | 0.00 | 1.37 | 1.27 | 59 | 1009.6 |
| 20260506170041 | 18 | 153 | 0.0 | 8.0 | 0.00 | 1.37 | 1.27 | 56 | 1009.4 |
| 20260506164538 | 19 | 118 | 1.6 | 9.7 | 0.00 | 1.37 | 1.27 | 53 | 1009.3 |
| 20260506163036 | 20 | 120 | 1.6 | 14.5 | 0.00 | 1.37 | 1.27 | 51 | 1009.4 |
| 20260506161533 | 20 | 101 | 6.4 | 12.9 | 0.00 | 1.37 | 1.27 | 52 | 1009.3 |
| 20260506160039 | 20 | 137 | 3.2 | 9.7 | 0.00 | 1.37 | 1.27 | 48 | 1009.4 |
| 20260506154534 | 20 | 66 | 3.2 | 14.5 | 0.00 | 1.37 | 1.27 | 48 | 1009.1 |
| 20260506153032 | 21 | 88 | 3.2 | 8.0 | 0.00 | 1.37 | 1.27 | 48 | 1009.2 |
| 20260506151532 | 21 | 130 | 3.2 | 12.9 | 0.00 | 1.37 | 1.27 | 49 | 1009.1 |
| 20260506150031 | 21 | 80 | 3.2 | 16.1 | 0.00 | 1.37 | 1.27 | 46 | 1009.2 |
| 20260506144530 | 21 | 94 | 3.2 | 11.3 | 0.00 | 1.37 | 1.27 | 46 | 1009.2 |
| 20260506143034 | 21 | 117 | 3.2 | 11.3 | 0.00 | 1.37 | 1.27 | 46 | 1009.2 |
| 20260506141529 | 21 | 355 | 3.2 | 16.1 | 0.00 | 1.37 | 1.27 | 45 | 1009.3 |
| 20260506140130 | 21 | 120 | 1.6 | 17.7 | 0.00 | 1.37 | 1.27 | 45 | 1009.4 |
| 20260506134527 | 21 | 102 | 6.4 | 22.5 | 0.00 | 1.37 | 1.27 | 45 | 1009.5 |
| 20260506133027 | 21 | 92 | 1.6 | 12.9 | 0.00 | 1.37 | 1.27 | 49 | 1009.7 |
| 20260506131540 | 21 | 36 | 4.8 | 22.5 | 0.00 | 1.37 | 1.27 | 50 | 1009.7 |
| 20260506130034 | 21 | 58 | 3.2 | 11.3 | 0.00 | 1.37 | 1.27 | 49 | 1009.8 |
| 20260506124520 | 21 | 325 | 3.2 | 20.9 | 0.00 | 1.37 | 1.27 | 49 | 1009.9 |
| 20260506123019 | 21 | 105 | 3.2 | 16.1 | 0.00 | 1.37 | 1.27 | 52 | 1009.9 |
| 20260506121516 | 20 | 155 | 3.2 | 12.9 | 0.00 | 1.37 | 1.27 | 52 | 1010.0 |
| 20260506120018 | 19 | 169 | 3.2 | 11.3 | 0.00 | 1.37 | 1.27 | 56 | 1010.1 |
| 20260506114511 | 18 | 347 | 1.6 | 8.0 | 0.00 | 1.37 | 1.27 | 59 | 1010.2 |
| 20260506113009 | 19 | 345 | 3.2 | 17.7 | 0.00 | 1.37 | 1.27 | 56 | 1010.3 |
| 20260506111508 | 19 | 87 | 3.2 | 16.1 | 0.00 | 1.37 | 1.27 | 55 | 1010.3 |
| 20260506110006 | 19 | 351 | 3.2 | 9.7 | 0.00 | 1.65 | 1.27 | 59 | 1010.3 |
| 20260506104505 | 19 | 88 | 4.8 | 9.7 | 0.00 | 1.65 | 1.27 | 60 | 1010.4 |
| 20260506103003 | 18 | 296 | 4.8 | 20.9 | 0.00 | 1.65 | 1.27 | 60 | 1010.5 |
| 20260506101503 | 18 | 276 | 3.2 | 16.1 | 0.00 | 1.65 | 1.27 | 65 | 1010.5 |
| 20260506100100 | 17 | 234 | 3.2 | 12.9 | 0.00 | 1.65 | 1.27 | 65 | 1010.5 |
| 20260506094501 | 17 | 94 | 4.8 | 14.5 | 0.00 | 1.70 | 1.27 | 65 | 1010.6 |
| 20260506093059 | 18 | 67 | 3.2 | 11.3 | 0.00 | 1.70 | 1.27 | 70 | 1010.5 |
| 20260506091556 | 17 | 30 | 3.2 | 9.7 | 0.00 | 1.70 | 1.27 | 72 | 1010.3 |
| 20260506090053 | 17 | 94 | 1.6 | 8.0 | 0.00 | 1.70 | 1.27 | 76 | 1010.4 |
| 20260506084551 | 17 | 71 | 0.0 | 8.0 | 0.00 | 1.70 | 1.27 | 80 | 1010.2 |
| 20260506083047 | 16 | 99 | 1.6 | 6.4 | 0.00 | 1.70 | 1.27 | 84 | 1010.3 |
| 20260506081544 | 15 | 114 | 0.0 | 4.8 | 0.00 | 1.70 | 1.27 | 88 | 1010.4 |
| 20260506073036 | 13 | 121 | 0.0 | 4.8 | 0.00 | 1.70 | 1.27 | 94 | 1010.1 |
| 20260506071536 | 13 | 163 | 0.0 | 3.2 | 0.00 | 1.70 | 1.27 | 94 | 1010.1 |
| 20260506061533 | 12 | 300 | 0.0 | 0.0 | 0.00 | 1.70 | 1.27 | 97 | 1009.8 |
| 20260506044527 | 10 | 292 | 0.0 | 0.0 | 0.00 | 1.70 | 1.27 | 96 | 1009.1 |
| 20260506043027 | 10 | 292 | 0.0 | 0.0 | 0.00 | 1.70 | 1.27 | 96 | 1009.0 |
| 20260506041526 | 10 | 292 | 0.0 | 3.2 | 0.03 | 1.70 | 1.27 | 95 | 1008.9 |
| 20260506040025 | 10 | 280 | 0.0 | 1.6 | 0.03 | 1.98 | 1.27 | 95 | 1009.0 |
| 20260506034524 | 10 | 225 | 0.0 | 1.6 | 0.03 | 1.98 | 1.27 | 94 | 1008.8 |
| 20260506033022 | 10 | 225 | 0.0 | 3.2 | 0.03 | 1.98 | 1.27 | 94 | 1008.7 |
| 20260506031519 | 10 | 225 | 0.0 | 1.6 | 0.00 | 1.96 | 1.27 | 93 | 1008.6 |
| 20260506030027 | 11 | 225 | 0.0 | 0.0 | 0.00 | 2.21 | 1.27 | 93 | 1008.7 |
| 20260506024533 | 11 | 225 | 0.0 | 0.0 | 0.05 | 2.21 | 1.27 | 93 | 1008.5 |
| 20260506023015 | 11 | 225 | 0.0 | 0.0 | 0.28 | 2.21 | 1.27 | 93 | 1008.5 |
| 20260506021514 | 11 | 228 | 0.0 | 0.0 | 0.61 | 2.21 | 1.27 | 93 | 1008.4 |
| 20260506020011 | 11 | 234 | 0.0 | 9.7 | 0.89 | 2.24 | 1.27 | 93 | 1008.6 |
| 20260506014516 | 12 | 5 | 4.8 | 9.7 | 1.04 | 2.18 | 1.19 | 93 | 1008.5 |
| 20260506013008 | 12 | 311 | 1.6 | 4.8 | 0.94 | 1.93 | 0.97 | 93 | 1009.6 |
| 20260506011504 | 12 | 342 | 1.6 | 6.4 | 0.64 | 1.63 | 0.64 | 93 | 1009.4 |
| 20260506010104 | 12 | 315 | 0.0 | 4.8 | 0.38 | 1.37 | 0.38 | 93 | 1009.2 |
| 20260506004600 | 13 | 316 | 0.0 | 4.8 | 0.18 | 1.27 | 0.18 | 93 | 1009.0 |
| 20260506003059 | 13 | 188 | 0.0 | 1.6 | 0.03 | 1.09 | 0.03 | 93 | 1009.0 |
| 20260506003003 | 13 | 188 | 0.0 | 1.6 | 0.00 | 1.09 | 0.00 | 93 | 1009.0 |
| 20260506001609 | 13 | 188 | 0.0 | 1.6 | 0.00 | 1.09 | 0.00 | 93 | 1008.9 |
| 20260506000056 | 13 | 188 | 0.0 | 1.6 | 0.00 | 1.09 | 0.00 | 92 | 1009.0 |
| 20260505234556 | 13 | 81 | 0.0 | 4.8 | 0.00 | 1.37 | 0.00 | 92 | 1009.1 |
| 20260505233053 | 13 | 46 | 0.0 | 8.0 | 0.00 | 1.37 | 0.00 | 92 | 1009.5 |
| 20260505231600 | 13 | 333 | 1.6 | 8.0 | 0.00 | 1.37 | 0.00 | 93 | 1009.8 |
| 20260505230056 | 13 | 78 | 1.6 | 9.7 | 0.00 | 1.37 | 0.00 | 92 | 1010.1 |
| 20260505224548 | 13 | 85 | 1.6 | 6.4 | 0.00 | 1.50 | 0.00 | 92 | 1010.2 |
| 20260505223043 | 13 | 62 | 0.0 | 4.8 | 0.00 | 1.50 | 0.00 | 93 | 1010.4 |
| 20260505221544 | 14 | 121 | 0.0 | 4.8 | 0.03 | 1.50 | 0.00 | 92 | 1010.6 |
| 20260505220038 | 14 | 121 | 0.0 | 6.4 | 0.05 | 1.55 | 1.50 | 92 | 1010.9 |
| 20260505214538 | 14 | 171 | 0.0 | 8.0 | 0.10 | 1.55 | 1.50 | 92 | 1011.0 |
| 20260505213048 | 14 | 169 | 1.6 | 8.0 | 0.10 | 1.55 | 1.50 | 92 | 1011.0 |
| 20260505211537 | 14 | 315 | 4.8 | 14.5 | 0.08 | 1.55 | 1.45 | 92 | 1010.5 |
| 20260505210037 | 15 | 30 | 0.0 | 4.8 | 0.05 | 1.52 | 1.42 | 91 | 1011.9 |
| 20260505204536 | 15 | 158 | 0.0 | 4.8 | 0.00 | 1.45 | 1.40 | 90 | 1012.1 |
| 20260505203035 | 15 | 107 | 1.6 | 9.7 | 0.00 | 1.45 | 1.40 | 89 | 1012.0 |
| 20260505201535 | 15 | 47 | 0.0 | 4.8 | 0.00 | 1.45 | 1.40 | 88 | 1011.9 |
| 20260505200035 | 15 | 9 | 0.0 | 4.8 | 0.00 | 1.50 | 1.40 | 85 | 1011.8 |
| 20260505194534 | 15 | 178 | 1.6 | 11.3 | 0.00 | 1.50 | 1.40 | 84 | 1011.5 |
| 20260505193033 | 15 | 74 | 0.0 | 8.0 | 0.00 | 1.50 | 1.40 | 84 | 1011.7 |
| 20260505191533 | 15 | 136 | 1.6 | 11.3 | 0.00 | 1.50 | 1.40 | 84 | 1011.5 |
| 20260505190032 | 16 | 113 | 1.6 | 6.4 | 0.00 | 1.50 | 1.40 | 83 | 1011.4 |